Burlington, WA
on Friday, December 28, 2012

Friday
Previous Day Next Day
Daily Summary
 ActualAverage (KBLI)Record (KBLI)
Temperature
Mean Temperature °F 38°F  
Max Temperature 42°F 44°F 59°F (1986)
Min Temperature 39°F 32°F 1°F (1968)
Degree Days
Heating Degree Days 24 27  
Month to date heating degree days 746  
Cooling Degree Days 0 0  
Month to date cooling degree days 0  
Year to date cooling degree days 42  
Moisture
Dew Point 39°F   
Average Humidity 94    
Maximum Humidity 100    
Minimum Humidity 87    
Precipitation
Precipitation 0.00 in 0.12 in 0.99 in (1949)
Month to date precipitation 3.87  
Year to date precipitation 35.48  
Wind
Wind Speed 7 mph   
Max Wind Speed 13 mph   
Max Gust Speed mph   
Visibility 9 miles   
Events     

Key: T is trace of precipitation, MM is missing value
Source: NWS Daily Summary
Time(PST)TemperatureDew PointHumidity Pressure Visibility Wind DirectionWind SpeedGust SpeedPrecipitationEvents Conditions
12:35 AM 41.0°F 41.0°F 100% 30.17 in 8.0 miles ENE 5.8 mph - 0.00 in   Overcast
12:55 AM 41.0°F 41.0°F 100% 30.17 in 9.0 miles ENE 5.8 mph - 0.00 in   Mostly Cloudy
1:15 AM 41.0°F 41.0°F 100% 30.17 in 8.0 miles East 4.6 mph - 0.00 in   Mostly Cloudy
1:35 AM 39.2°F 39.2°F 100% 30.17 in 9.0 miles East 3.5 mph - 0.00 in   Mostly Cloudy
1:55 AM 41.0°F 41.0°F 100% 30.17 in 9.0 miles East 4.6 mph - 0.00 in   Overcast
2:15 AM 41.0°F 41.0°F 100% 30.18 in 9.0 miles East 5.8 mph - 0.00 in   Overcast
2:35 AM 41.0°F 41.0°F 100% 30.17 in 10.0 miles East 6.9 mph - 0.00 in   Overcast
2:55 AM 41.0°F 41.0°F 100% 30.17 in 9.0 miles East 6.9 mph - 0.00 in   Mostly Cloudy
3:15 AM 39.2°F 39.2°F 100% 30.16 in 10.0 miles East 6.9 mph - 0.00 in   Scattered Clouds
3:35 AM 39.2°F 39.2°F 100% 30.16 in 9.0 miles East 6.9 mph - 0.00 in   Partly Cloudy
3:55 AM 39.2°F 39.2°F 100% 30.15 in 10.0 miles East 5.8 mph - 0.00 in   Partly Cloudy
4:15 AM 39.2°F 39.2°F 100% 30.16 in 10.0 miles Calm Calm - 0.00 in   Mostly Cloudy
4:35 AM 39.2°F 39.2°F 100% 30.15 in 10.0 miles East 8.1 mph - 0.00 in   Mostly Cloudy
5:15 AM 39.2°F 39.2°F 100% 30.15 in 10.0 miles East 9.2 mph - 0.00 in   Overcast
5:35 AM 39.2°F 39.2°F 100% 30.14 in 10.0 miles ENE 10.4 mph - 0.00 in   Overcast
6:15 AM 39.2°F 39.2°F 100% 30.14 in 10.0 miles ENE 5.8 mph - 0.00 in   Overcast
6:55 AM 39.2°F 39.2°F 100% 30.13 in 10.0 miles ENE 8.1 mph - 0.00 in   Mostly Cloudy
7:15 AM 39.2°F 39.2°F 100% 30.13 in 10.0 miles ENE 6.9 mph - 0.00 in   Mostly Cloudy
7:35 AM 39.2°F 39.2°F 100% 30.13 in 10.0 miles ENE 6.9 mph - 0.00 in   Overcast
7:55 AM 39.2°F 39.2°F 100% 30.13 in 10.0 miles ENE 9.2 mph - 0.00 in   Overcast
8:15 AM 39.2°F 37.4°F 93% 30.13 in 9.0 miles ENE 10.4 mph - 0.00 in   Overcast
8:35 AM 39.2°F 39.2°F 100% 30.14 in 9.0 miles ENE 11.5 mph - 0.00 in   Mostly Cloudy
8:55 AM 39.2°F 39.2°F 100% 30.14 in 8.0 miles ENE 10.4 mph - 0.00 in   Scattered Clouds
9:15 AM 39.2°F 39.2°F 100% 30.15 in 8.0 miles NE 8.1 mph - 0.00 in   Clear
9:35 AM 39.2°F 39.2°F 100% 30.15 in 8.0 miles NE 9.2 mph - 0.00 in   Clear
9:55 AM 41.0°F 39.2°F 93% 30.15 in 8.0 miles ENE 10.4 mph - 0.00 in   Clear
10:15 AM 41.0°F 39.2°F 93% 30.15 in 8.0 miles NE 10.4 mph - 0.00 in   Clear
10:35 AM 41.0°F 39.2°F 93% 30.15 in 8.0 miles NE 12.7 mph - 0.00 in   Clear
10:55 AM 42.8°F 39.2°F 87% 30.15 in 8.0 miles ENE 11.5 mph - 0.00 in   Clear
11:15 AM 42.8°F 39.2°F 87% 30.14 in 8.0 miles NE 11.5 mph - 0.00 in   Clear
11:35 AM 42.8°F 39.2°F 87% 30.14 in 8.0 miles NE 10.4 mph - 0.00 in   Clear
11:55 AM 42.8°F 39.2°F 87% 30.14 in 8.0 miles NE 10.4 mph - 0.00 in   Clear
12:15 PM 42.8°F 39.2°F 87% 30.14 in 8.0 miles NE 10.4 mph - 0.00 in   Clear
12:35 PM 42.8°F 39.2°F 87% 30.13 in 8.0 miles NNE 8.1 mph - 0.00 in   Clear
12:55 PM 42.8°F 39.2°F 87% 30.13 in 7.0 miles NE 8.1 mph - 0.00 in   Clear
1:35 PM 42.8°F 39.2°F 87% 30.13 in 7.0 miles NNE 8.1 mph - 0.00 in   Partly Cloudy
1:55 PM 42.8°F 39.2°F 87% 30.13 in 8.0 miles NE 6.9 mph - 0.00 in   Clear
2:15 PM 42.8°F 39.2°F 87% 30.12 in 8.0 miles NE 6.9 mph - 0.00 in   Partly Cloudy
2:35 PM 42.8°F 39.2°F 87% 30.13 in 8.0 miles NE 5.8 mph - 0.00 in   Clear
2:55 PM 42.8°F 39.2°F 87% 30.13 in 7.0 miles NNE 5.8 mph - 0.00 in   Clear
3:35 PM 42.8°F 39.2°F 87% 30.13 in 8.0 miles NE 8.1 mph - 0.00 in   Scattered Clouds
3:55 PM 42.8°F 39.2°F 87% 30.14 in 7.0 miles NE 5.8 mph - 0.00 in   Overcast
4:15 PM 42.8°F 39.2°F 87% 30.14 in 7.0 miles NE 5.8 mph - 0.00 in   Overcast
4:35 PM 42.8°F 39.2°F 87% 30.14 in 8.0 miles NE 8.1 mph - 0.00 in   Overcast
5:15 PM 42.8°F 39.2°F 87% 30.14 in 10.0 miles NE 8.1 mph - 0.00 in   Overcast
5:35 PM 42.8°F 39.2°F 87% 30.14 in 10.0 miles NE 9.2 mph - 0.00 in   Overcast
5:55 PM 42.8°F 39.2°F 87% 30.14 in 9.0 miles NE 8.1 mph - 0.00 in   Overcast
6:15 PM 42.8°F 39.2°F 87% 30.14 in 9.0 miles ENE 6.9 mph - 0.00 in   Mostly Cloudy
7:15 PM 41.0°F 39.2°F 93% 30.14 in 10.0 miles NE 8.1 mph - 0.00 in   Clear
7:35 PM 41.0°F 39.2°F 93% 30.15 in 9.0 miles NE 8.1 mph - 0.00 in   Scattered Clouds
7:55 PM 41.0°F 39.2°F 93% 30.15 in 10.0 miles NE 8.1 mph - 0.00 in   Scattered Clouds
8:15 PM 41.0°F 39.2°F 93% 30.15 in 9.0 miles NE 6.9 mph - 0.00 in   Scattered Clouds
8:35 PM 41.0°F 39.2°F 93% 30.15 in 8.0 miles NE 6.9 mph - 0.00 in   Mostly Cloudy
8:55 PM 41.0°F 39.2°F 93% 30.15 in 9.0 miles NE 6.9 mph - 0.00 in   Scattered Clouds
9:15 PM 41.0°F 39.2°F 93% 30.15 in 9.0 miles ENE 6.9 mph - 0.00 in   Mostly Cloudy
9:35 PM 41.0°F 39.2°F 93% 30.16 in 9.0 miles NE 5.8 mph - 0.00 in   Overcast
9:55 PM 39.2°F 39.2°F 100% 30.16 in 10.0 miles NNE 6.9 mph - 0.00 in   Overcast
10:15 PM 39.2°F 39.2°F 100% 30.16 in 10.0 miles NNE 8.1 mph - 0.00 in   Scattered Clouds
10:35 PM 39.2°F 39.2°F 100% 30.17 in 10.0 miles NNE 5.8 mph - 0.00 in   Scattered Clouds
11:15 PM 39.2°F 39.2°F 100% 30.17 in 9.0 miles NE 5.8 mph - 0.00 in   Overcast
11:35 PM 39.2°F 39.2°F 100% 30.17 in 9.0 miles NNE 4.6 mph - 0.00 in   Overcast
11:55 PM 39.2°F 39.2°F 100% 30.17 in 9.0 miles NNE 4.6 mph - 0.00 in   Overcast
Moon Phase
Dec. 28 Jan. 04 Jan. 11 Jan. 18 Jan. 26
Sunrise:08:01 AM (PST) Moon Rise:05:09 PM (PST)
Sunset:04:22 PM (PST) Moon Set:07:54 AM (PST)

Copyright © 2014 The Weather Underground, Inc.